ARIANE 2 R/B, 19773

Orbit data source: Space-Track

ARIANE 2 R/B, 19773 is space debris in HEO originally from a launch on Fri, 27 Jan 1989 UTC launched from the French Guiana (FRGUI). Debris objects in space refer to the collection of defunct objects orbiting the Earth. Examples of debris include non-operational satellites, rocket bodies, and fragments generated from explosions, collisions, or faulty payload assembly.

Loading next visibility...
Identifier
19773, 1989-006B
Orbit
HEO
Country
Flag of FRFR
Related business
Manufacturer
Ae/LesM
Mission
Spacecraft
Bus & Motor
ARIANE H10, Unknown motor
Mass
1,820 kg wet, 1,820 kg dry
Launch date (UTC)
1989-01-27 (37 years ago)
Launch vehicle
Unknown
Launch site
French Guiana (FRGUI)
Object type
Payload
Rocket body
Debris
Shape & HBR
Cyl, 5.9 m
Radar Cross Section
26.751 m², Large (>1 m²)

Expand to show TLE details & history
Last TLE update: 17 hours ago

TLE from 17 hours ago
0 ARIANE 2 R/B
1 19773U 89006B   25288.46180382  .00000175  00000-0  90532-3 0  9992
2 19773   7.7484 146.4113 7176365 296.6725   8.7183  2.29188391305054
Epoch: 2025-10-15T11:04Z
TLE epoch observation values (Epoch: 2025-10-15T11:04:59.850Z)
Latitude
0.00032°
Longitude
-43.83725°
Altitude
2,574.587 km
Speed
8.522 km/s
True Right ascension
09h 46m 35s
True Declination
0° 00' 01"
Sunlit
Object was in daylight at epoch
Visualization orbit readout
Latitude
Unknown
Longitude
Unknown
Altitude
Unknown
Speed
Unknown
Apparent Right ascension
Unknown
Apparent Declination
Unknown
Sunlit
N/A
Visualization observer readout
Local Sidereal Time
22:21:43
Azimuth
Unknown
Elevation
Unknown
Doppler factor
Unknown
Orbital elements
Apogee altitude
35,369.47 km
Perigee altitude
484.782 km
Semi-major axis
24,305.263 km
Eccentricity
0.71764
Inclination
7.7484°
RAAN
146.4113°
Arg. of periapsis
296.6725°
True anomaly
63.29109°
Mean anomaly
8.7183°
Eccentric anomaly
28.05952°
Mean motion
0.57279 °/min
Orbital period
628.51 mins
BSTAR
0.00090532
Loading maneuver chart data...
Computing Atmospheric mass density...
Loading historical data...
Loading historical data...
Loading historical data...
Loading historical data...
Loading historical data...
Loading historical data...
Loading historical data...

Documentation

Showing up to 5 results
|